When you browse on this site, cookies collect data to enhance your experience and personalize the content and advertising you see.
Visit our Privacy Policy to learn more. By continuing to use the site, you agree to this use of cookies and data.
  • In Spain
  • List of Countries
  • For 7 days
  • Water Temperature
  • Satellite Maps
  • Weather Map
  • Weather Widgets
  • user-avatar
    Login

    Hourly Weather Iowa City

    Today, 21 April, Sunday

    Time Temperature Precipitation Wind Pressure Humidity
    00:00 +12°C° 0 mm 4 mps 738 mmHg 61%
    01:00 +12°C° 0 mm 3 mps 738 mmHg 63%
    02:00 +12°C° 0 mm 3 mps 738 mmHg 64%
    03:00 +11°C° 0 mm 3 mps 738 mmHg 66%
    04:00 +11°C° 0 mm 3 mps 738 mmHg 68%
    05:00 +11°C° 0 mm 3 mps 739 mmHg 71%
    06:00 +12°C° 0 mm 4 mps 739 mmHg 64%
    07:00 +14°C° 0 mm 4 mps 739 mmHg 63%
    08:00 +18°C° 0 mm 4 mps 739 mmHg 61%
    09:00 +20°C° 0 mm 4 mps 739 mmHg 60%
    10:00 +22°C° 0 mm 5 mps 739 mmHg 56%
    11:00 +24°C° 0 mm 6 mps 739 mmHg 52%
    12:00 +27°C° 0 mm 7 mps 739 mmHg 48%
    13:00 +27°C° 0 mm 7 mps 739 mmHg 48%
    14:00 +27°C° 0 mm 7 mps 739 mmHg 47%
    15:00 +28°C° 0 mm 7 mps 739 mmHg 46%
    16:00 +26°C° 0 mm 6 mps 739 mmHg 52%
    17:00 +23°C° 0 mm 6 mps 739 mmHg 59%
    18:00 +22°C° 0 mm 5 mps 739 mmHg 65%
    19:00 +21°C° 0 mm 5 mps 739 mmHg 64%
    20:00 +21°C° 0 mm 5 mps 739 mmHg 64%
    21:00 +20°C° 0 mm 6 mps 739 mmHg 63%
    22:00 +20°C° 0 mm 6 mps 739 mmHg 65%
    23:00 +19°C° 0 mm 6 mps 739 mmHg 67%

    Tomorrow, 22 April, Monday

    Time Temperature Precipitation Wind Pressure Humidity
    00:00 +19°C° 0 mm 6 mps 739 mmHg 69%
    01:00 +17°C° 0 mm 5 mps 739 mmHg 72%
    02:00 +16°C° 0 mm 5 mps 739 mmHg 76%
    03:00 +16°C° 0 mm 5 mps 739 mmHg 79%
    04:00 +16°C° 0.1 mm 5 mps 739 mmHg 80%
    05:00 +16°C° 0.1 mm 6 mps 739 mmHg 80%
    06:00 +16°C° 0.1 mm 7 mps 739 mmHg 80%
    07:00 +17°C° 0 mm 7 mps 739 mmHg 78%
    08:00 +18°C° 0 mm 7 mps 739 mmHg 76%
    09:00 +20°C° 0 mm 8 mps 739 mmHg 74%
    10:00 +20°C° 1.2 mm 7 mps 738 mmHg 76%
    11:00 +20°C° 1.2 mm 6 mps 738 mmHg 78%
    12:00 +21°C° 1.2 mm 5 mps 738 mmHg 80%
    13:00 +21°C° 0.4 mm 6 mps 738 mmHg 82%
    14:00 +21°C° 0.4 mm 6 mps 737 mmHg 83%
    15:00 +21°C° 0.4 mm 6 mps 737 mmHg 84%
    16:00 +20°C° 0.1 mm 6 mps 737 mmHg 83%
    17:00 +20°C° 0.1 mm 7 mps 737 mmHg 81%
    18:00 +18°C° 0.1 mm 7 mps 737 mmHg 80%
    19:00 +17°C° 0 mm 7 mps 737 mmHg 82%
    20:00 +15°C° 0 mm 7 mps 738 mmHg 84%
    21:00 +12°C° 0 mm 7 mps 739 mmHg 86%
    22:00 +11°C° 0 mm 7 mps 739 mmHg 86%
    23:00 +11°C° 0 mm 6 mps 739 mmHg 86%

    Day after tomorrow, 23 April, Tuesday

    Time Temperature Precipitation Wind Pressure Humidity
    00:00 +10°C° 0 mm 6 mps 740 mmHg 85%
    01:00 +9°C° 0 mm 6 mps 740 mmHg 86%
    02:00 +8°C° 0 mm 6 mps 740 mmHg 86%
    03:00 +8°C° 0 mm 5 mps 741 mmHg 87%
    04:00 +7°C° 0 mm 6 mps 741 mmHg 85%
    05:00 +7°C° 0 mm 6 mps 741 mmHg 84%
    06:00 +7°C° 0 mm 6 mps 742 mmHg 82%
    07:00 +8°C° 0 mm 6 mps 742 mmHg 80%
    08:00 +8°C° 0 mm 6 mps 743 mmHg 78%
    09:00 +9°C° 0 mm 6 mps 743 mmHg 77%
    10:00 +10°C° 0 mm 5 mps 744 mmHg 72%
    11:00 +12°C° 0 mm 5 mps 744 mmHg 68%
    12:00 +13°C° 0 mm 4 mps 744 mmHg 64%
    13:00 +15°C° 0 mm 4 mps 743 mmHg 58%
    14:00 +17°C° 0 mm 4 mps 743 mmHg 52%
    15:00 +18°C° 0 mm 3 mps 743 mmHg 45%
    16:00 +17°C° 0 mm 3 mps 743 mmHg 50%
    17:00 +17°C° 0 mm 3 mps 743 mmHg 54%
    18:00 +16°C° 0 mm 2 mps 743 mmHg 59%
    19:00 +14°C° 0 mm 2 mps 743 mmHg 63%
    20:00 +13°C° 0 mm 2 mps 743 mmHg 67%
    21:00 +10°C° 0 mm 2 mps 743 mmHg 70%
    22:00 +10°C° 0 mm 2 mps 743 mmHg 72%
    23:00 +9°C° 0 mm 2 mps 743 mmHg 74%

    24 April, Wednesday

    Time Temperature Precipitation Wind Pressure Humidity
    00:00 +9°C° 0 mm 2 mps 743 mmHg 75%
    01:00 +9°C° 0 mm 1 mps 743 mmHg 76%
    02:00 +9°C° 0 mm 1 mps 743 mmHg 77%
    03:00 +8°C° 0 mm 1 mps 743 mmHg 78%
    04:00 +8°C° 0 mm 1 mps 743 mmHg 79%
    05:00 +8°C° 0 mm 1 mps 743 mmHg 79%
    06:00 +8°C° 0 mm 1 mps 743 mmHg 80%
    07:00 +11°C° 0 mm 1 mps 743 mmHg 74%
    08:00 +13°C° 0 mm 2 mps 743 mmHg 67%
    09:00 +15°C° 0 mm 2 mps 743 mmHg 61%
    10:00 +16°C° 0 mm 2 mps 743 mmHg 56%
    11:00 +18°C° 0 mm 2 mps 742 mmHg 50%
    12:00 +19°C° 0 mm 3 mps 742 mmHg 45%
    13:00 +20°C° 0 mm 3 mps 741 mmHg 44%
    14:00 +20°C° 0 mm 3 mps 741 mmHg 43%
    15:00 +21°C° 0 mm 3 mps 740 mmHg 41%
    16:00 +20°C° 0 mm 3 mps 740 mmHg 46%
    17:00 +19°C° 0 mm 2 mps 739 mmHg 51%
    18:00 +18°C° 0 mm 2 mps 739 mmHg 56%
    19:00 +17°C° 0 mm 2 mps 739 mmHg 61%
    20:00 +15°C° 0 mm 2 mps 739 mmHg 65%
    21:00 +14°C° 0 mm 2 mps 740 mmHg 70%
    22:00 +13°C° 0 mm 2 mps 739 mmHg 75%
    23:00 +13°C° 0 mm 2 mps 739 mmHg 80%

    25 April, Thursday

    Time Temperature Precipitation Wind Pressure Humidity
    00:00 +12°C° 0 mm 2 mps 739 mmHg 85%
    01:00 +12°C° 0 mm 2 mps 739 mmHg 87%
    02:00 +12°C° 0 mm 2 mps 738 mmHg 89%
    03:00 +10°C° 0 mm 2 mps 738 mmHg 91%
    04:00 +10°C° 0 mm 2 mps 738 mmHg 91%
    05:00 +10°C° 0 mm 2 mps 738 mmHg 92%
    06:00 +10°C° 0 mm 2 mps 739 mmHg 92%
    07:00 +14°C° 0 mm 2 mps 739 mmHg 83%
    08:00 +16°C° 0 mm 2 mps 738 mmHg 73%
    09:00 +18°C° 0 mm 2 mps 738 mmHg 64%
    10:00 +20°C° 0 mm 2 mps 738 mmHg 58%
    11:00 +21°C° 0 mm 3 mps 738 mmHg 52%
    12:00 +24°C° 0 mm 3 mps 737 mmHg 46%
    13:00 +24°C° 0 mm 3 mps 737 mmHg 45%
    14:00 +25°C° 0 mm 4 mps 737 mmHg 45%
    15:00 +25°C° 0 mm 4 mps 737 mmHg 44%
    16:00 +22°C° 0 mm 5 mps 737 mmHg 55%
    17:00 +20°C° 0 mm 5 mps 738 mmHg 66%
    18:00 +17°C° 0 mm 6 mps 738 mmHg 77%
    19:00 +16°C° 0 mm 6 mps 739 mmHg 78%
    20:00 +15°C° 0 mm 5 mps 739 mmHg 79%
    21:00 +14°C° 0 mm 5 mps 740 mmHg 81%
    22:00 +13°C° 0 mm 4 mps 741 mmHg 84%
    23:00 +12°C° 0 mm 4 mps 741 mmHg 87%

    26 April, Friday

    Time Temperature Precipitation Wind Pressure Humidity
    00:00 +11°C° 0 mm 3 mps 742 mmHg 91%
    01:00 +10°C° 0 mm 3 mps 742 mmHg 91%
    02:00 +10°C° 0 mm 3 mps 742 mmHg 92%
    03:00 +9°C° 0 mm 2 mps 742 mmHg 92%
    04:00 +9°C° 0 mm 2 mps 743 mmHg 91%
    05:00 +9°C° 0 mm 2 mps 743 mmHg 90%
    06:00 +9°C° 0 mm 2 mps 744 mmHg 89%
    07:00 +13°C° 0 mm 2 mps 744 mmHg 80%
    08:00 +15°C° 0 mm 2 mps 745 mmHg 71%
    09:00 +17°C° 0 mm 2 mps 745 mmHg 62%
    10:00 +19°C° 0 mm 3 mps 745 mmHg 53%
    11:00 +20°C° 0 mm 3 mps 745 mmHg 45%
    12:00 +22°C° 0 mm 3 mps 745 mmHg 36%
    13:00 +22°C° 0 mm 3 mps 745 mmHg 35%
    14:00 +23°C° 0 mm 2 mps 745 mmHg 33%
    15:00 +23°C° 0 mm 2 mps 745 mmHg 32%
    16:00 +21°C° 0 mm 2 mps 744 mmHg 37%
    17:00 +21°C° 0 mm 2 mps 744 mmHg 42%
    18:00 +21°C° 0 mm 1 mps 744 mmHg 47%
    19:00 +18°C° 0 mm 2 mps 744 mmHg 50%
    20:00 +17°C° 0 mm 2 mps 744 mmHg 54%
    21:00 +15°C° 0 mm 2 mps 745 mmHg 58%
    22:00 +15°C° 0 mm 2 mps 744 mmHg 59%
    23:00 +14°C° 0 mm 2 mps 744 mmHg 61%
    Show more